BRS01 LPPT-GVAC

Flight info

Callsign BRS01
Flight time 3h 49m
Altitude 37000
Route ULVOT DCT BEXAL UN866 KONBA DCT GURKA DCT BRICK DCT GOMER/N0461F380 N866 TENPA DCT PINPO PINPO1F
Aircraft A319/M-SDE2E3FGHIJ1J3J4J5RWYZ/SB1

Departure

Time 2026-04-23 22:41
Airport Lisbon Humberto Delgado Airport (LPPT)

Arrival

Time 2026-04-24 02:30
Airport Amílcar Cabral International Airport (GVAC)
Time Latitude Longitude Altitude Speed Heading
2026-04-23 22:23 38.78116 -9.12976 338 ft 0 kts 33°
2026-04-23 22:34 38.78118 -9.12974 337 ft 2 kts 33°
2026-04-23 22:34 38.78133 -9.12988 336 ft 5 kts 299°
2026-04-23 22:34 38.78099 -9.13040 338 ft 11 kts 211°
2026-04-23 22:35 38.78017 -9.13071 337 ft 14 kts 163°
2026-04-23 22:35 38.77897 -9.13047 331 ft 21 kts 170°
2026-04-23 22:35 38.77774 -9.13072 336 ft 17 kts 240°
2026-04-23 22:35 38.77753 -9.13189 337 ft 13 kts 258°
2026-04-23 22:36 38.77736 -9.13296 334 ft 12 kts 258°
2026-04-23 22:36 38.77690 -9.13369 349 ft 10 kts 202°
2026-04-23 22:36 38.77621 -9.13407 344 ft 11 kts 204°
2026-04-23 22:36 38.77540 -9.13450 349 ft 14 kts 202°
2026-04-23 22:37 38.77462 -9.13522 350 ft 14 kts 219°
2026-04-23 22:37 38.77366 -9.13522 350 ft 15 kts 168°
2026-04-23 22:37 38.77292 -9.13548 350 ft 12 kts 240°
2026-04-23 22:37 38.77272 -9.13651 351 ft 12 kts 258°
2026-04-23 22:38 38.77252 -9.13767 352 ft 14 kts 258°
2026-04-23 22:38 38.77201 -9.13863 361 ft 15 kts 199°
2026-04-23 22:38 38.77134 -9.13896 355 ft 17 kts 203°
2026-04-23 22:38 38.77016 -9.13961 357 ft 22 kts 202°
2026-04-23 22:39 38.76836 -9.14057 349 ft 20 kts 202°
2026-04-23 22:39 38.76745 -9.14105 346 ft 23 kts 202°
2026-04-23 22:39 38.76612 -9.14175 337 ft 7 kts 202°
2026-04-23 22:39 38.76593 -9.14235 339 ft 10 kts 284°
2026-04-23 22:40 38.76629 -9.14343 335 ft 16 kts 293°
2026-04-23 22:40 38.76711 -9.14348 336 ft 15 kts 18°
2026-04-23 22:40 38.77548 -9.13907 364 ft 122 kts 23°
2026-04-23 22:41 38.78502 -9.13400 515 ft 158 kts 21°
2026-04-23 22:41 38.79507 -9.12840 1237 ft 157 kts 21°
2026-04-23 22:41 38.80517 -9.12300 1990 ft 157 kts 20°
2026-04-23 22:41 38.81566 -9.11701 2458 ft 176 kts 26°
2026-04-23 22:42 38.82689 -9.10851 2856 ft 199 kts 30°
2026-04-23 22:42 38.83947 -9.09879 3268 ft 222 kts 32°
2026-04-23 22:42 38.85323 -9.08812 3777 ft 243 kts 32°
2026-04-23 22:42 38.86760 -9.07486 4393 ft 264 kts 47°
2026-04-23 22:43 38.87737 -9.05468 5343 ft 270 kts 72°
2026-04-23 22:43 38.88000 -9.03082 6330 ft 273 kts 97°
2026-04-23 22:43 38.87455 -9.00747 7271 ft 275 kts 120°
2026-04-23 22:43 38.86333 -8.98727 8249 ft 277 kts 138°
2026-04-23 22:44 38.84743 -8.97366 9217 ft 277 kts 160°
2026-04-23 22:44 38.82859 -8.96912 10161 ft 278 kts 183°
2026-04-23 22:44 38.80935 -8.97446 10713 ft 295 kts 201°
2026-04-23 22:44 38.78965 -8.98493 11011 ft 319 kts 203°
2026-04-23 22:45 38.76847 -8.99659 11234 ft 342 kts 203°
2026-04-23 22:45 38.74603 -9.00898 11604 ft 357 kts 203°
2026-04-23 22:45 38.72300 -9.02157 11961 ft 361 kts 203°
2026-04-23 22:45 38.69990 -9.03405 12046 ft 360 kts 203°
2026-04-23 22:46 38.67678 -9.04646 12057 ft 360 kts 202°
2026-04-23 22:46 38.65363 -9.05879 12056 ft 360 kts 202°
2026-04-23 22:46 38.63052 -9.07108 12057 ft 360 kts 202°
2026-04-23 22:46 38.60735 -9.08341 12057 ft 360 kts 202°
2026-04-23 22:47 38.58422 -9.09570 12062 ft 360 kts 202°
2026-04-23 22:47 38.56110 -9.10802 12063 ft 360 kts 202°
2026-04-23 22:47 38.53796 -9.12037 12066 ft 360 kts 202°
2026-04-23 22:47 38.51486 -9.13269 12068 ft 360 kts 202°
2026-04-23 22:48 38.49171 -9.14501 12072 ft 360 kts 202°
2026-04-23 22:48 38.46859 -9.15728 12075 ft 360 kts 202°
2026-04-23 22:48 38.44516 -9.16973 12075 ft 360 kts 202°
2026-04-23 22:48 38.42245 -9.18308 12078 ft 360 kts 209°
2026-04-23 22:49 38.40185 -9.20123 12081 ft 360 kts 217°
2026-04-23 22:49 38.38204 -9.22075 12085 ft 360 kts 217°
2026-04-23 22:49 38.36213 -9.24019 12085 ft 360 kts 217°
2026-04-23 22:49 38.34222 -9.25953 12084 ft 360 kts 217°
2026-04-23 22:50 38.32230 -9.27886 12086 ft 360 kts 217°
2026-04-23 22:50 38.30239 -9.29815 12085 ft 360 kts 217°
2026-04-23 22:50 38.28248 -9.31746 12085 ft 360 kts 217°
2026-04-23 22:50 38.26258 -9.33675 12085 ft 360 kts 217°
2026-04-23 22:51 38.24266 -9.35608 12085 ft 360 kts 217°
2026-04-23 22:51 38.22276 -9.37541 12087 ft 360 kts 217°
2026-04-23 22:51 38.20291 -9.39469 12088 ft 360 kts 217°
2026-04-23 22:51 38.18302 -9.41401 12086 ft 360 kts 217°
2026-04-23 22:52 38.16311 -9.43328 12088 ft 359 kts 217°
2026-04-23 22:52 38.14322 -9.45251 12086 ft 359 kts 217°
2026-04-23 22:52 38.12336 -9.47172 12091 ft 359 kts 217°
2026-04-23 22:52 38.10343 -9.49102 12144 ft 362 kts 217°
2026-04-23 22:53 38.08331 -9.51047 12843 ft 363 kts 217°
2026-04-23 22:53 38.06316 -9.52993 13617 ft 365 kts 217°
2026-04-23 22:53 38.04266 -9.54968 14337 ft 367 kts 217°
2026-04-23 22:53 38.02226 -9.56931 14996 ft 369 kts 217°
2026-04-23 22:54 38.00170 -9.58910 15667 ft 372 kts 217°
2026-04-23 22:54 37.98128 -9.60951 16337 ft 375 kts 218°
2026-04-23 22:54 37.96113 -9.63077 16999 ft 379 kts 219°
2026-04-23 22:54 37.94100 -9.65260 17629 ft 382 kts 220°
2026-04-23 22:55 37.92080 -9.67466 18274 ft 385 kts 220°
2026-04-23 22:55 37.90039 -9.69687 18820 ft 388 kts 220°
2026-04-23 22:55 37.87974 -9.71915 19357 ft 391 kts 219°
2026-04-23 22:55 37.85886 -9.74148 19896 ft 394 kts 219°
2026-04-23 22:56 37.83782 -9.76383 20431 ft 396 kts 219°
2026-04-23 22:56 37.81660 -9.78630 20940 ft 399 kts 219°
2026-04-23 22:56 37.79527 -9.80888 21433 ft 401 kts 219°
2026-04-23 22:56 37.77385 -9.83161 21911 ft 404 kts 219°
2026-04-23 22:57 37.75228 -9.85451 22385 ft 406 kts 219°
2026-04-23 22:57 37.73063 -9.87747 22836 ft 408 kts 219°
2026-04-23 22:57 37.70877 -9.90058 23276 ft 410 kts 219°
2026-04-23 22:57 37.68682 -9.92373 23696 ft 413 kts 219°
2026-04-23 22:58 37.66473 -9.94703 24073 ft 414 kts 219°
2026-04-23 22:58 37.64254 -9.97044 24450 ft 416 kts 219°
2026-04-23 22:58 37.62023 -9.99377 24826 ft 417 kts 218°
2026-04-23 22:58 37.59694 -10.01641 25198 ft 418 kts 216°
2026-04-23 22:59 37.57330 -10.03796 25567 ft 420 kts 215°
2026-04-23 22:59 37.54936 -10.05905 25930 ft 421 kts 214°
2026-04-23 22:59 37.52525 -10.08005 26284 ft 422 kts 214°
2026-04-23 22:59 37.50108 -10.10119 26633 ft 423 kts 215°
2026-04-23 23:00 37.47696 -10.12255 26972 ft 424 kts 215°
2026-04-23 23:00 37.45283 -10.14412 27301 ft 426 kts 215°
2026-04-23 23:00 37.42872 -10.16580 27623 ft 427 kts 215°
2026-04-23 23:00 37.40455 -10.18756 27993 ft 427 kts 215°
2026-04-23 23:01 37.38014 -10.20951 28497 ft 424 kts 215°
2026-04-23 23:01 37.35622 -10.23096 28998 ft 422 kts 215°
2026-04-23 23:01 37.33239 -10.25232 29509 ft 419 kts 215°
2026-04-23 23:01 37.30870 -10.27355 30022 ft 417 kts 215°
2026-04-23 23:02 37.28515 -10.29466 30494 ft 415 kts 215°
2026-04-23 23:02 37.26169 -10.31568 30899 ft 414 kts 215°
2026-04-23 23:02 37.23829 -10.33663 31296 ft 413 kts 215°
2026-04-23 23:02 37.21486 -10.35757 31678 ft 413 kts 215°
2026-04-23 23:03 37.19151 -10.37838 32091 ft 412 kts 215°
2026-04-23 23:03 37.16813 -10.39919 32505 ft 411 kts 215°
2026-04-23 23:03 37.14478 -10.41995 32914 ft 411 kts 215°
2026-04-23 23:03 37.12149 -10.44062 33326 ft 410 kts 215°
2026-04-23 23:04 37.09822 -10.46129 33743 ft 410 kts 215°
2026-04-23 23:04 37.07500 -10.48192 34155 ft 409 kts 216°
2026-04-23 23:04 37.05178 -10.50253 34536 ft 409 kts 215°
2026-04-23 23:04 37.02861 -10.52304 34920 ft 408 kts 216°
2026-04-23 23:05 37.00550 -10.54350 35349 ft 406 kts 216°
2026-04-23 23:05 36.98247 -10.56392 35765 ft 405 kts 216°
2026-04-23 23:05 36.95954 -10.58423 36167 ft 404 kts 216°
2026-04-23 23:05 36.93637 -10.60474 36574 ft 403 kts 216°
2026-04-23 23:06 36.91351 -10.62496 36934 ft 402 kts 216°
2026-04-23 23:06 36.89064 -10.64513 37078 ft 402 kts 216°
2026-04-23 23:06 36.86786 -10.66517 37099 ft 400 kts 216°
2026-04-23 23:07 36.83007 -10.69840 37098 ft 399 kts 216°
2026-04-23 23:07 36.77707 -10.74514 37097 ft 399 kts 216°
2026-04-23 23:08 36.73931 -10.77831 37098 ft 400 kts 216°
2026-04-23 23:08 36.69383 -10.81824 37097 ft 400 kts 216°
2026-04-23 23:09 36.64827 -10.85813 37107 ft 400 kts 216°
2026-04-23 23:09 36.60281 -10.89789 37105 ft 400 kts 216°
2026-04-23 23:10 36.55680 -10.93814 37109 ft 401 kts 215°
2026-04-23 23:10 36.51119 -10.97791 37105 ft 401 kts 215°
2026-04-23 23:11 36.46512 -11.01789 37108 ft 401 kts 215°
2026-04-23 23:11 36.41938 -11.05772 37110 ft 402 kts 216°
2026-04-23 23:12 36.37361 -11.09757 37115 ft 402 kts 216°
2026-04-23 23:12 36.32774 -11.13729 37113 ft 402 kts 216°
2026-04-23 23:13 36.28180 -11.17699 37117 ft 403 kts 215°
2026-04-23 23:13 36.23581 -11.21669 37112 ft 403 kts 216°
2026-04-23 23:14 36.18953 -11.25671 37116 ft 403 kts 216°
2026-04-23 23:14 36.14345 -11.29642 37114 ft 404 kts 216°
2026-04-23 23:15 36.09737 -11.33608 37112 ft 404 kts 216°
2026-04-23 23:15 36.05124 -11.37575 37113 ft 404 kts 216°
2026-04-23 23:16 36.00500 -11.41539 37116 ft 405 kts 216°
2026-04-23 23:16 35.95872 -11.45504 37117 ft 405 kts 216°
2026-04-23 23:17 35.91278 -11.49526 37120 ft 405 kts 217°
2026-04-23 23:17 35.86700 -11.53588 37106 ft 405 kts 217°
2026-04-23 23:18 35.82109 -11.57635 37110 ft 406 kts 216°
2026-04-23 23:18 35.77503 -11.61659 37108 ft 406 kts 216°
2026-04-23 23:19 35.72889 -11.65685 37116 ft 407 kts 216°
2026-04-23 23:19 35.68280 -11.69715 37113 ft 407 kts 216°
2026-04-23 23:19 35.65946 -11.71753 37240 ft 417 kts 218°
2026-04-23 23:20 35.63553 -11.73844 37098 ft 426 kts 218°
2026-04-23 23:20 35.58669 -11.78111 37108 ft 433 kts 218°
2026-04-23 23:21 35.53736 -11.82396 37109 ft 435 kts 218°
2026-04-23 23:21 35.48759 -11.86708 37110 ft 435 kts 218°
2026-04-23 23:22 35.43814 -11.90991 37106 ft 435 kts 218°
2026-04-23 23:22 35.38862 -11.95277 37121 ft 436 kts 218°
2026-04-23 23:23 35.33911 -11.99567 37120 ft 436 kts 218°
2026-04-23 23:23 35.28945 -12.03854 37116 ft 436 kts 218°
2026-04-23 23:24 35.23982 -12.08133 37115 ft 437 kts 218°
2026-04-23 23:24 35.19008 -12.12409 37111 ft 437 kts 219°
2026-04-23 23:25 35.14036 -12.16682 37116 ft 437 kts 219°
2026-04-23 23:25 35.09056 -12.20949 37121 ft 437 kts 219°
2026-04-23 23:26 35.04081 -12.25212 37122 ft 437 kts 219°
2026-04-23 23:26 34.99100 -12.29475 37119 ft 437 kts 219°
2026-04-23 23:27 34.94120 -12.33729 37119 ft 437 kts 219°
2026-04-23 23:27 34.89135 -12.37979 37119 ft 437 kts 219°
2026-04-23 23:28 34.84153 -12.42215 37123 ft 437 kts 219°
2026-04-23 23:28 34.79130 -12.46480 37118 ft 437 kts 219°
2026-04-23 23:29 34.74143 -12.50724 37119 ft 437 kts 220°
2026-04-23 23:29 34.69153 -12.54952 37118 ft 437 kts 220°
2026-04-23 23:30 34.64170 -12.59178 37117 ft 437 kts 220°
2026-04-23 23:30 34.59178 -12.63394 37118 ft 437 kts 220°
2026-04-23 23:31 34.54181 -12.67598 37117 ft 437 kts 220°
2026-04-23 23:31 34.49191 -12.71800 37119 ft 437 kts 220°
2026-04-23 23:32 34.44199 -12.76009 37117 ft 437 kts 220°
2026-04-23 23:32 34.39202 -12.80207 37117 ft 437 kts 220°
2026-04-23 23:33 34.34207 -12.84389 37116 ft 437 kts 220°
2026-04-23 23:33 34.29209 -12.88573 37118 ft 437 kts 220°
2026-04-23 23:34 34.24214 -12.92753 37120 ft 437 kts 221°
2026-04-23 23:34 34.19203 -12.96984 37119 ft 436 kts 221°
2026-04-23 23:35 34.14236 -13.01188 37122 ft 436 kts 221°
2026-04-23 23:35 34.09257 -13.05381 37116 ft 436 kts 221°
2026-04-23 23:36 34.04278 -13.09561 37119 ft 436 kts 221°
2026-04-23 23:36 34.00109 -13.13052 37120 ft 436 kts 221°
2026-04-23 23:37 33.95132 -13.17220 37116 ft 435 kts 221°
2026-04-23 23:37 33.90165 -13.21385 37119 ft 435 kts 222°
2026-04-23 23:38 33.85182 -13.25538 37121 ft 435 kts 222°
2026-04-23 23:38 33.80209 -13.29685 37119 ft 435 kts 222°
2026-04-23 23:39 33.75239 -13.33831 37122 ft 435 kts 222°
2026-04-23 23:39 33.70272 -13.37965 37117 ft 434 kts 222°
2026-04-23 23:40 33.65268 -13.42124 37116 ft 434 kts 222°
2026-04-23 23:40 33.60305 -13.46247 37121 ft 434 kts 222°
2026-04-23 23:41 33.55338 -13.50362 37119 ft 434 kts 223°
2026-04-23 23:41 33.50369 -13.54468 37119 ft 434 kts 223°
2026-04-23 23:42 33.45400 -13.58571 37120 ft 433 kts 223°
2026-04-23 23:42 33.40441 -13.62666 37118 ft 433 kts 223°
2026-04-23 23:43 33.35476 -13.66757 37116 ft 433 kts 223°
2026-04-23 23:43 33.30510 -13.70837 37114 ft 433 kts 223°
2026-04-23 23:44 33.25540 -13.74911 37108 ft 433 kts 223°
2026-04-23 23:44 33.20584 -13.78976 37111 ft 432 kts 224°
2026-04-23 23:45 33.15626 -13.83046 37115 ft 432 kts 224°
2026-04-23 23:45 33.10664 -13.87097 37121 ft 432 kts 223°
2026-04-23 23:46 33.05687 -13.91122 37118 ft 432 kts 224°
2026-04-23 23:46 33.00710 -13.95152 37115 ft 432 kts 224°
2026-04-23 23:47 32.95730 -13.99176 37113 ft 432 kts 224°
2026-04-23 23:47 32.90760 -14.03203 37111 ft 432 kts 224°
2026-04-23 23:48 32.85784 -14.07218 37107 ft 432 kts 224°
2026-04-23 23:48 32.80804 -14.11224 37106 ft 432 kts 224°
2026-04-23 23:49 32.73299 -14.17259 37108 ft 432 kts 224°
2026-04-23 23:49 32.68312 -14.21258 37110 ft 432 kts 224°
2026-04-23 23:50 32.63329 -14.25260 37112 ft 432 kts 224°
2026-04-23 23:50 32.58348 -14.29255 37110 ft 432 kts 224°
2026-04-23 23:51 32.53356 -14.33243 37110 ft 432 kts 224°
2026-04-23 23:51 32.48377 -14.37234 37112 ft 432 kts 224°
2026-04-23 23:52 32.43397 -14.41212 37117 ft 432 kts 224°
2026-04-23 23:52 32.38408 -14.45175 37116 ft 432 kts 224°
2026-04-23 23:53 32.33422 -14.49136 37115 ft 431 kts 224°
2026-04-23 23:53 32.28442 -14.53092 37119 ft 431 kts 224°
2026-04-23 23:54 32.23469 -14.57041 37132 ft 430 kts 224°
2026-04-23 23:54 32.18497 -14.60983 37124 ft 430 kts 224°
2026-04-23 23:55 32.13502 -14.64946 37119 ft 430 kts 224°
2026-04-23 23:55 32.08532 -14.68870 37115 ft 430 kts 223°
2026-04-23 23:56 32.03564 -14.72782 37115 ft 430 kts 223°
2026-04-23 23:56 31.98592 -14.76695 37114 ft 429 kts 223°
2026-04-23 23:57 31.93628 -14.80600 37112 ft 429 kts 223°
2026-04-23 23:57 31.88664 -14.84507 37113 ft 429 kts 223°
2026-04-23 23:58 31.83702 -14.88406 37117 ft 429 kts 223°
2026-04-23 23:58 31.78728 -14.92296 37112 ft 429 kts 223°
2026-04-23 23:59 31.73761 -14.96180 37108 ft 429 kts 223°
2026-04-23 23:59 31.68791 -15.00071 37112 ft 429 kts 223°
2026-04-24 00:00 31.63816 -15.03955 37118 ft 429 kts 223°
2026-04-24 00:00 31.58842 -15.07834 37102 ft 429 kts 223°
2026-04-24 00:01 31.53869 -15.11711 37114 ft 429 kts 223°
2026-04-24 00:01 31.48892 -15.15583 37113 ft 430 kts 222°
2026-04-24 00:02 31.43877 -15.19476 37111 ft 430 kts 222°
2026-04-24 00:02 31.38889 -15.23343 37115 ft 430 kts 222°
2026-04-24 00:03 31.33910 -15.27208 37116 ft 430 kts 222°
2026-04-24 00:03 31.28898 -15.31031 37114 ft 432 kts 220°
2026-04-24 00:04 31.23630 -15.34499 37111 ft 436 kts 217°
2026-04-24 00:04 31.18239 -15.37782 37112 ft 437 kts 216°
2026-04-24 00:05 31.12876 -15.41105 37117 ft 436 kts 217°
2026-04-24 00:05 31.07560 -15.44493 37125 ft 435 kts 217°
2026-04-24 00:06 31.02250 -15.47899 37124 ft 435 kts 217°
2026-04-24 00:06 30.96929 -15.51288 37121 ft 436 kts 217°
2026-04-24 00:07 30.91602 -15.54651 37119 ft 436 kts 217°
2026-04-24 00:07 30.87134 -15.57475 37119 ft 436 kts 217°
2026-04-24 00:08 30.81811 -15.60850 37121 ft 436 kts 217°
2026-04-24 00:08 30.76488 -15.64214 37120 ft 436 kts 217°
2026-04-24 00:09 30.71156 -15.67582 37122 ft 436 kts 217°
2026-04-24 00:09 30.65829 -15.70941 37124 ft 436 kts 217°
2026-04-24 00:10 30.60460 -15.74315 37128 ft 436 kts 217°
2026-04-24 00:10 30.55125 -15.77667 37121 ft 436 kts 216°
2026-04-24 00:11 30.49795 -15.81016 37124 ft 436 kts 216°
2026-04-24 00:11 30.44458 -15.84346 37129 ft 436 kts 216°
2026-04-24 00:12 30.39127 -15.87681 37129 ft 435 kts 216°
2026-04-24 00:12 30.33806 -15.91023 37137 ft 435 kts 216°
2026-04-24 00:13 30.28448 -15.94379 37129 ft 435 kts 216°
2026-04-24 00:13 30.23118 -15.97694 37125 ft 435 kts 216°
2026-04-24 00:14 30.17787 -16.01008 37125 ft 435 kts 216°
2026-04-24 00:14 30.12465 -16.04322 37127 ft 435 kts 216°
2026-04-24 00:15 30.07131 -16.07631 37120 ft 435 kts 216°
2026-04-24 00:15 30.01805 -16.10943 37120 ft 435 kts 216°
2026-04-24 00:16 29.96473 -16.14248 37120 ft 435 kts 216°
2026-04-24 00:16 29.91134 -16.17556 37123 ft 435 kts 216°
2026-04-24 00:17 29.85790 -16.20858 37127 ft 435 kts 216°
2026-04-24 00:17 29.80448 -16.24152 37124 ft 435 kts 216°
2026-04-24 00:18 29.75114 -16.27453 37126 ft 435 kts 216°
2026-04-24 00:18 29.69776 -16.30749 37128 ft 435 kts 215°
2026-04-24 00:19 29.64399 -16.34056 37130 ft 435 kts 215°
2026-04-24 00:19 29.59052 -16.37341 37129 ft 436 kts 215°
2026-04-24 00:20 29.53708 -16.40618 37132 ft 435 kts 215°
2026-04-24 00:20 29.48365 -16.43893 37130 ft 435 kts 215°
2026-04-24 00:21 29.43025 -16.47166 37126 ft 435 kts 215°
2026-04-24 00:21 29.37679 -16.50439 37128 ft 435 kts 215°
2026-04-24 00:22 29.32335 -16.53703 37131 ft 436 kts 215°
2026-04-24 00:22 29.26981 -16.56963 37133 ft 436 kts 215°
2026-04-24 00:23 29.21626 -16.60227 37130 ft 436 kts 215°
2026-04-24 00:23 29.16275 -16.63485 37133 ft 436 kts 215°
2026-04-24 00:24 29.10888 -16.66764 37132 ft 436 kts 214°
2026-04-24 00:24 29.05533 -16.70011 37134 ft 436 kts 214°
2026-04-24 00:25 29.00174 -16.73263 37129 ft 436 kts 214°
2026-04-24 00:25 28.94819 -16.76513 37125 ft 436 kts 214°
2026-04-24 00:26 28.89457 -16.79757 37128 ft 436 kts 214°
2026-04-24 00:26 28.84095 -16.82995 37128 ft 436 kts 214°
2026-04-24 00:27 28.78733 -16.86228 37128 ft 436 kts 214°
2026-04-24 00:27 28.73370 -16.89468 37129 ft 436 kts 214°
2026-04-24 00:28 28.68012 -16.92709 37132 ft 436 kts 214°
2026-04-24 00:28 28.62645 -16.95939 37132 ft 436 kts 214°
2026-04-24 00:29 28.57273 -16.99155 37131 ft 436 kts 214°
2026-04-24 00:29 28.51898 -17.02375 37134 ft 436 kts 214°
2026-04-24 00:30 28.46531 -17.05593 37137 ft 436 kts 214°
2026-04-24 00:30 28.41163 -17.08814 37137 ft 436 kts 214°
2026-04-24 00:31 28.35753 -17.12048 37137 ft 436 kts 214°
2026-04-24 00:31 28.30379 -17.15257 37132 ft 436 kts 214°
2026-04-24 00:32 28.25001 -17.18460 37132 ft 436 kts 214°
2026-04-24 00:32 28.19628 -17.21666 37130 ft 437 kts 214°
2026-04-24 00:33 28.14253 -17.24870 37127 ft 436 kts 214°
2026-04-24 00:33 28.08877 -17.28068 37121 ft 436 kts 214°
2026-04-24 00:34 28.06191 -17.29663 37335 ft 436 kts 214°
2026-04-24 00:34 28.03508 -17.31254 37596 ft 436 kts 214°
2026-04-24 00:34 28.00818 -17.32845 37859 ft 436 kts 214°
2026-04-24 00:34 27.98251 -17.34617 38080 ft 431 kts 219°
2026-04-24 00:35 27.93254 -17.38350 38142 ft 430 kts 220°
2026-04-24 00:35 27.88264 -17.42084 38146 ft 430 kts 220°
2026-04-24 00:36 27.83269 -17.45815 38145 ft 430 kts 219°
2026-04-24 00:36 27.78271 -17.49539 38150 ft 430 kts 220°
2026-04-24 00:37 27.73269 -17.53258 38146 ft 431 kts 219°
2026-04-24 00:37 27.68260 -17.56979 38138 ft 431 kts 219°
2026-04-24 00:38 27.63254 -17.60688 38133 ft 431 kts 219°
2026-04-24 00:38 27.59056 -17.63793 38133 ft 431 kts 219°
2026-04-24 00:39 27.54045 -17.67502 38130 ft 431 kts 219°
2026-04-24 00:39 27.49031 -17.71212 38129 ft 431 kts 219°
2026-04-24 00:40 27.44016 -17.74921 38133 ft 431 kts 219°
2026-04-24 00:40 27.38997 -17.78627 38125 ft 431 kts 219°
2026-04-24 00:41 27.33973 -17.82331 38130 ft 432 kts 219°
2026-04-24 00:41 27.28940 -17.86022 38129 ft 432 kts 219°
2026-04-24 00:42 27.23909 -17.89712 38123 ft 432 kts 219°
2026-04-24 00:42 27.18845 -17.93436 38127 ft 432 kts 219°
2026-04-24 00:43 27.13820 -17.97133 38123 ft 432 kts 219°
2026-04-24 00:43 27.08778 -18.00835 38124 ft 433 kts 219°
2026-04-24 00:44 27.03736 -18.04532 38126 ft 433 kts 219°
2026-04-24 00:44 26.98685 -18.08217 38123 ft 433 kts 219°
2026-04-24 00:45 26.93633 -18.11901 38125 ft 433 kts 219°
2026-04-24 00:45 26.88585 -18.15588 38125 ft 433 kts 219°
2026-04-24 00:46 26.83531 -18.19268 38125 ft 434 kts 219°
2026-04-24 00:46 26.78469 -18.22949 38127 ft 434 kts 219°
2026-04-24 00:47 26.73409 -18.26631 38127 ft 434 kts 219°
2026-04-24 00:47 26.68350 -18.30315 38129 ft 434 kts 220°
2026-04-24 00:48 26.63287 -18.33991 38129 ft 434 kts 219°
2026-04-24 00:48 26.58226 -18.37664 38129 ft 434 kts 219°
2026-04-24 00:49 26.53152 -18.41329 38127 ft 434 kts 219°
2026-04-24 00:49 26.48078 -18.44995 38123 ft 434 kts 219°
2026-04-24 00:50 26.43012 -18.48658 38135 ft 434 kts 219°
2026-04-24 00:50 26.37943 -18.52326 38134 ft 434 kts 219°
2026-04-24 00:51 26.32867 -18.55983 38130 ft 434 kts 219°
2026-04-24 00:51 26.27759 -18.59660 38135 ft 434 kts 219°
2026-04-24 00:52 26.22685 -18.63315 38133 ft 434 kts 219°
2026-04-24 00:52 26.17609 -18.66965 38135 ft 434 kts 219°
2026-04-24 00:53 26.12566 -18.70585 38136 ft 434 kts 219°
2026-04-24 00:53 26.07455 -18.74244 38135 ft 434 kts 219°
2026-04-24 00:54 26.02380 -18.77882 38138 ft 434 kts 220°
2026-04-24 00:54 25.97305 -18.81521 38137 ft 434 kts 219°
2026-04-24 00:55 25.92223 -18.85149 38136 ft 434 kts 219°
2026-04-24 00:55 25.87149 -18.88778 38138 ft 434 kts 219°
2026-04-24 00:56 25.82072 -18.92403 38139 ft 434 kts 219°
2026-04-24 00:56 25.76997 -18.96023 38138 ft 434 kts 219°
2026-04-24 00:57 25.71925 -18.99640 38138 ft 433 kts 219°
2026-04-24 00:58 25.64313 -19.05050 38141 ft 433 kts 219°
2026-04-24 00:58 25.59240 -19.08655 38137 ft 433 kts 220°
2026-04-24 00:59 25.54142 -19.12280 38141 ft 433 kts 220°
2026-04-24 00:59 25.49065 -19.15873 38137 ft 433 kts 219°
2026-04-24 01:00 25.43993 -19.19456 38134 ft 433 kts 220°
2026-04-24 01:00 25.38923 -19.23043 38139 ft 433 kts 220°
2026-04-24 01:01 25.33850 -19.26628 38138 ft 432 kts 220°
2026-04-24 01:01 25.28785 -19.30206 38140 ft 432 kts 220°
2026-04-24 01:02 25.23721 -19.33780 38140 ft 432 kts 220°
2026-04-24 01:02 25.18654 -19.37345 38140 ft 432 kts 220°
2026-04-24 01:03 25.13586 -19.40913 38139 ft 432 kts 220°
2026-04-24 01:03 25.08491 -19.44506 38142 ft 432 kts 220°
2026-04-24 01:04 25.03427 -19.48064 38138 ft 432 kts 220°
2026-04-24 01:04 24.98355 -19.51612 38141 ft 431 kts 220°
2026-04-24 01:05 24.93290 -19.55156 38138 ft 431 kts 220°
2026-04-24 01:05 24.88234 -19.58703 38139 ft 431 kts 220°
2026-04-24 01:06 24.83177 -19.62246 38144 ft 431 kts 220°
2026-04-24 01:06 24.78127 -19.65782 38142 ft 430 kts 220°
2026-04-24 01:07 24.73078 -19.69310 38143 ft 430 kts 220°
2026-04-24 01:07 24.68031 -19.72825 38142 ft 429 kts 220°
2026-04-24 01:08 24.62950 -19.76367 38142 ft 429 kts 220°
2026-04-24 01:08 24.57909 -19.79871 38139 ft 429 kts 220°
2026-04-24 01:09 24.52856 -19.83377 38142 ft 429 kts 220°
2026-04-24 01:09 24.48659 -19.86288 38142 ft 429 kts 220°
2026-04-24 01:10 24.42770 -19.90383 38142 ft 428 kts 220°
2026-04-24 01:10 24.38586 -19.93288 38137 ft 428 kts 220°
2026-04-24 01:11 24.33546 -19.96780 38141 ft 428 kts 220°
2026-04-24 01:11 24.28507 -20.00270 38133 ft 428 kts 220°
2026-04-24 01:12 24.23468 -20.03753 38136 ft 428 kts 220°
2026-04-24 01:12 24.18431 -20.07236 38139 ft 428 kts 220°
2026-04-24 01:13 24.13394 -20.10720 38137 ft 428 kts 220°
2026-04-24 01:13 24.08327 -20.14220 38135 ft 428 kts 220°
2026-04-24 01:14 24.03286 -20.17686 38139 ft 428 kts 220°
2026-04-24 01:14 23.98235 -20.21151 38138 ft 428 kts 220°
2026-04-24 01:15 23.93198 -20.24619 38144 ft 428 kts 220°
2026-04-24 01:15 23.88156 -20.28087 38143 ft 428 kts 220°
2026-04-24 01:16 23.83117 -20.31549 38145 ft 428 kts 220°
2026-04-24 01:16 23.78073 -20.35012 38139 ft 428 kts 220°
2026-04-24 01:17 23.73030 -20.38461 38137 ft 428 kts 220°
2026-04-24 01:17 23.67987 -20.41914 38139 ft 428 kts 220°
2026-04-24 01:18 23.62942 -20.45362 38133 ft 428 kts 220°
2026-04-24 01:18 23.57903 -20.48803 38131 ft 428 kts 220°
2026-04-24 01:19 23.52857 -20.52244 38134 ft 427 kts 220°
2026-04-24 01:19 23.47821 -20.55680 38130 ft 427 kts 220°
2026-04-24 01:20 23.42780 -20.59112 38127 ft 427 kts 220°
2026-04-24 01:20 23.37735 -20.62544 38128 ft 427 kts 220°
2026-04-24 01:21 23.32690 -20.65979 38127 ft 428 kts 220°
2026-04-24 01:21 23.27641 -20.69409 38128 ft 428 kts 220°
2026-04-24 01:22 23.22561 -20.72858 38133 ft 428 kts 220°
2026-04-24 01:22 23.17510 -20.76285 38131 ft 428 kts 220°
2026-04-24 01:23 23.12460 -20.79712 38129 ft 428 kts 220°
2026-04-24 01:23 23.07410 -20.83136 38127 ft 428 kts 220°
2026-04-24 01:24 23.02353 -20.86551 38127 ft 428 kts 220°
2026-04-24 01:24 22.97304 -20.89962 38127 ft 428 kts 220°
2026-04-24 01:25 22.92253 -20.93372 38115 ft 427 kts 220°
2026-04-24 01:25 22.87208 -20.96777 38110 ft 427 kts 220°
2026-04-24 01:26 22.82155 -21.00186 38119 ft 428 kts 220°
2026-04-24 01:26 22.77099 -21.03584 38120 ft 428 kts 220°
2026-04-24 01:27 22.72036 -21.06989 38114 ft 428 kts 220°
2026-04-24 01:27 22.66975 -21.10394 38112 ft 429 kts 220°
2026-04-24 01:28 22.61908 -21.13797 38122 ft 429 kts 220°
2026-04-24 01:28 22.56838 -21.17200 38119 ft 429 kts 220°
2026-04-24 01:29 22.51765 -21.20598 38117 ft 429 kts 220°
2026-04-24 01:29 22.46694 -21.23994 38112 ft 429 kts 221°
2026-04-24 01:30 22.41621 -21.27399 38109 ft 429 kts 220°
2026-04-24 01:30 22.36543 -21.30793 38109 ft 430 kts 220°
2026-04-24 01:31 22.31453 -21.34196 38112 ft 430 kts 221°
2026-04-24 01:31 22.26356 -21.37595 38114 ft 431 kts 220°
2026-04-24 01:32 22.21222 -21.41018 38116 ft 431 kts 221°
2026-04-24 01:32 22.16122 -21.44420 38118 ft 431 kts 221°
2026-04-24 01:33 22.11012 -21.47821 38120 ft 432 kts 221°
2026-04-24 01:33 22.05900 -21.51221 38121 ft 432 kts 221°
2026-04-24 01:34 22.00790 -21.54619 38122 ft 432 kts 221°
2026-04-24 01:34 21.95676 -21.58019 38121 ft 432 kts 221°
2026-04-24 01:35 21.90558 -21.61416 38120 ft 432 kts 221°
2026-04-24 01:35 21.85431 -21.64804 38119 ft 432 kts 221°
2026-04-24 01:35 21.82725 -21.66297 38116 ft 447 kts 209°
2026-04-24 01:36 21.79663 -21.67147 38119 ft 457 kts 202°
2026-04-24 01:36 21.73437 -21.68594 38114 ft 458 kts 202°
2026-04-24 01:37 21.67191 -21.70026 38121 ft 459 kts 202°
2026-04-24 01:37 21.60951 -21.71460 38115 ft 459 kts 202°
2026-04-24 01:38 21.54692 -21.72894 38122 ft 460 kts 202°
2026-04-24 01:38 21.48435 -21.74333 38112 ft 460 kts 202°
2026-04-24 01:39 21.42176 -21.75769 38115 ft 460 kts 202°
2026-04-24 01:39 21.35911 -21.77212 38116 ft 461 kts 202°
2026-04-24 01:40 21.29604 -21.78661 38113 ft 460 kts 202°
2026-04-24 01:40 21.23338 -21.80098 38111 ft 461 kts 202°
2026-04-24 01:41 21.17071 -21.81531 38110 ft 461 kts 202°
2026-04-24 01:41 21.10804 -21.82967 38105 ft 460 kts 202°
2026-04-24 01:42 21.04537 -21.84408 38100 ft 461 kts 202°
2026-04-24 01:42 20.99325 -21.85600 38098 ft 461 kts 202°
2026-04-24 01:43 20.91989 -21.87273 38098 ft 461 kts 202°
2026-04-24 01:43 20.86767 -21.88463 38103 ft 461 kts 202°
2026-04-24 01:44 20.80489 -21.89890 38101 ft 461 kts 202°
2026-04-24 01:44 20.74208 -21.91318 38095 ft 461 kts 202°
2026-04-24 01:45 20.67928 -21.92748 38098 ft 461 kts 202°
2026-04-24 01:45 20.61655 -21.94174 38095 ft 461 kts 202°
2026-04-24 01:46 20.55338 -21.95612 38091 ft 461 kts 202°
2026-04-24 01:46 20.49073 -21.97040 38093 ft 460 kts 202°
2026-04-24 01:47 20.42807 -21.98463 38091 ft 460 kts 201°
2026-04-24 01:47 20.36541 -21.99874 38088 ft 460 kts 201°
2026-04-24 01:48 20.30279 -22.01282 38092 ft 460 kts 201°
2026-04-24 01:48 20.24022 -22.02695 38093 ft 460 kts 201°
2026-04-24 01:49 20.17769 -22.04114 38089 ft 460 kts 201°
2026-04-24 01:49 20.11513 -22.05535 38096 ft 460 kts 201°
2026-04-24 01:50 20.05259 -22.06951 38094 ft 460 kts 201°
2026-04-24 01:50 19.99001 -22.08362 38095 ft 460 kts 201°
2026-04-24 01:51 19.92706 -22.09784 38100 ft 459 kts 201°
2026-04-24 01:51 19.86453 -22.11192 38100 ft 459 kts 201°
2026-04-24 01:52 19.80198 -22.12599 38099 ft 460 kts 201°
2026-04-24 01:52 19.73937 -22.13996 38098 ft 460 kts 201°
2026-04-24 01:53 19.67679 -22.15397 38099 ft 460 kts 201°
2026-04-24 01:53 19.61416 -22.16804 38100 ft 460 kts 201°
2026-04-24 01:54 19.55157 -22.18208 38098 ft 460 kts 200°
2026-04-24 01:54 19.48901 -22.19618 38095 ft 459 kts 200°
2026-04-24 01:55 19.42653 -22.21019 38091 ft 459 kts 200°
2026-04-24 01:55 19.36398 -22.22412 38085 ft 459 kts 200°
2026-04-24 01:56 19.30143 -22.23815 38089 ft 459 kts 200°
2026-04-24 01:56 19.23890 -22.25208 38082 ft 459 kts 200°
2026-04-24 01:57 19.17635 -22.26601 38086 ft 459 kts 200°
2026-04-24 01:57 19.11333 -22.28010 38088 ft 460 kts 200°
2026-04-24 01:58 19.05072 -22.29403 38087 ft 460 kts 200°
2026-04-24 01:58 18.98808 -22.30800 38091 ft 460 kts 200°
2026-04-24 01:59 18.92537 -22.32194 38086 ft 460 kts 199°
2026-04-24 01:59 18.86267 -22.33588 38089 ft 461 kts 199°
2026-04-24 02:00 18.79995 -22.34981 38093 ft 461 kts 199°
2026-04-24 02:00 18.73717 -22.36366 38092 ft 461 kts 199°
2026-04-24 02:01 18.67444 -22.37762 38088 ft 461 kts 199°
2026-04-24 02:01 18.61166 -22.39154 38089 ft 461 kts 199°
2026-04-24 02:02 18.54892 -22.40541 38090 ft 461 kts 199°
2026-04-24 02:02 18.48611 -22.41929 38088 ft 461 kts 199°
2026-04-24 02:03 18.39206 -22.44013 38082 ft 460 kts 199°
2026-04-24 02:03 18.32934 -22.45395 38079 ft 460 kts 199°
2026-04-24 02:04 18.26625 -22.46790 38081 ft 460 kts 198°
2026-04-24 02:04 18.20359 -22.48178 38072 ft 460 kts 198°
2026-04-24 02:05 18.14094 -22.49563 38074 ft 460 kts 198°
2026-04-24 02:05 18.07827 -22.50936 38084 ft 460 kts 198°
2026-04-24 02:06 18.01561 -22.52307 38082 ft 460 kts 198°
2026-04-24 02:06 17.95304 -22.53691 38074 ft 460 kts 198°
2026-04-24 02:07 17.89042 -22.55086 38071 ft 460 kts 198°
2026-04-24 02:07 17.82779 -22.56465 38071 ft 460 kts 198°
2026-04-24 02:08 17.76516 -22.57830 38069 ft 460 kts 198°
2026-04-24 02:08 17.70200 -22.59211 38064 ft 460 kts 198°
2026-04-24 02:09 17.63928 -22.60592 38057 ft 461 kts 198°
2026-04-24 02:09 17.57638 -22.61973 38056 ft 462 kts 198°
2026-04-24 02:10 17.51338 -22.63353 38057 ft 463 kts 197°
2026-04-24 02:10 17.45035 -22.64728 37698 ft 463 kts 197°
2026-04-24 02:11 17.41864 -22.65422 36878 ft 467 kts 197°
2026-04-24 02:11 17.38671 -22.66124 36037 ft 471 kts 197°
2026-04-24 02:11 17.35452 -22.66830 35171 ft 474 kts 197°
2026-04-24 02:11 17.32213 -22.67539 34284 ft 478 kts 197°
2026-04-24 02:12 17.28940 -22.68253 33268 ft 481 kts 197°
2026-04-24 02:12 17.25651 -22.68969 32200 ft 485 kts 197°
2026-04-24 02:12 17.22335 -22.69690 31102 ft 488 kts 197°
2026-04-24 02:12 17.18996 -22.70415 29939 ft 492 kts 198°
2026-04-24 02:13 17.15636 -22.71145 28561 ft 495 kts 197°
2026-04-24 02:13 17.12253 -22.71879 27189 ft 497 kts 197°
2026-04-24 02:13 17.08855 -22.72616 25791 ft 499 kts 196°
2026-04-24 02:13 17.05451 -22.73356 24357 ft 500 kts 196°
2026-04-24 02:14 17.02049 -22.74096 23174 ft 496 kts 195°
2026-04-24 02:14 16.98707 -22.74818 22106 ft 485 kts 195°
2026-04-24 02:14 16.96495 -22.75295 21640 ft 474 kts 195°
2026-04-24 02:14 16.93366 -22.75969 21460 ft 444 kts 195°
2026-04-24 02:15 16.90448 -22.76596 21280 ft 413 kts 195°
2026-04-24 02:15 16.87723 -22.77184 21158 ft 387 kts 196°
2026-04-24 02:15 16.85166 -22.77736 20960 ft 365 kts 196°
2026-04-24 02:15 16.82722 -22.78268 20465 ft 354 kts 196°
2026-04-24 02:16 16.80333 -22.78793 19867 ft 349 kts 196°
2026-04-24 02:16 16.77976 -22.79312 19239 ft 344 kts 195°
2026-04-24 02:16 16.75643 -22.79824 18631 ft 341 kts 195°
2026-04-24 02:16 16.73333 -22.80328 17981 ft 337 kts 195°
2026-04-24 02:17 16.71051 -22.80824 17311 ft 333 kts 195°
2026-04-24 02:17 16.68798 -22.81315 16659 ft 329 kts 195°
2026-04-24 02:17 16.66570 -22.81800 16031 ft 324 kts 195°
2026-04-24 02:17 16.64381 -22.82275 15424 ft 320 kts 194°
2026-04-24 02:18 16.62205 -22.82744 14766 ft 317 kts 194°
2026-04-24 02:18 16.60002 -22.83153 14039 ft 319 kts 192°
2026-04-24 02:18 16.57887 -22.83521 13923 ft 298 kts 192°
2026-04-24 02:18 16.55897 -22.83861 13802 ft 281 kts 192°
2026-04-24 02:19 16.54023 -22.84176 13672 ft 266 kts 192°
2026-04-24 02:19 16.52238 -22.84471 13541 ft 252 kts 192°
2026-04-24 02:19 16.50497 -22.84756 13138 ft 251 kts 192°
2026-04-24 02:19 16.48772 -22.85038 12713 ft 251 kts 192°
2026-04-24 02:20 16.47053 -22.85318 12321 ft 249 kts 192°
2026-04-24 02:20 16.45345 -22.85606 11927 ft 247 kts 194°
2026-04-24 02:20 16.43637 -22.85792 11523 ft 248 kts 184°
2026-04-24 02:20 16.41914 -22.85772 11142 ft 247 kts 182°
2026-04-24 02:21 16.40207 -22.85743 10758 ft 244 kts 186°
2026-04-24 02:21 16.38608 -22.86166 10341 ft 235 kts 211°
2026-04-24 02:21 16.37376 -22.87224 9909 ft 229 kts 234°
2026-04-24 02:21 16.36706 -22.88707 9432 ft 227 kts 258°
2026-04-24 02:22 16.36695 -22.90337 8948 ft 228 kts 281°
2026-04-24 02:22 16.37347 -22.91841 8471 ft 231 kts 305°
2026-04-24 02:22 16.38565 -22.92933 8006 ft 235 kts 329°
2026-04-24 02:22 16.40121 -22.93465 7555 ft 237 kts 342°
2026-04-24 02:23 16.41713 -22.93885 7116 ft 235 kts 342°
2026-04-24 02:23 16.43286 -22.94305 6690 ft 232 kts 342°
2026-04-24 02:23 16.44861 -22.94654 6254 ft 232 kts 351°
2026-04-24 02:23 16.46467 -22.94689 5820 ft 230 kts 356°
2026-04-24 02:24 16.48060 -22.94697 5405 ft 227 kts 356°
2026-04-24 02:24 16.49628 -22.94709 4984 ft 224 kts 357°
2026-04-24 02:24 16.51172 -22.94722 4541 ft 220 kts 358°
2026-04-24 02:24 16.52694 -22.94734 4197 ft 216 kts 360°
2026-04-24 02:25 16.54175 -22.94745 3885 ft 208 kts
2026-04-24 02:25 16.55591 -22.94756 3586 ft 199 kts
2026-04-24 02:25 16.56943 -22.94768 3303 ft 190 kts
2026-04-24 02:25 16.58236 -22.94780 3025 ft 182 kts
2026-04-24 02:26 16.59456 -22.94792 2784 ft 167 kts
2026-04-24 02:26 16.60561 -22.94802 2527 ft 151 kts
2026-04-24 02:26 16.61561 -22.94811 2317 ft 137 kts
2026-04-24 02:26 16.62475 -22.94818 2135 ft 123 kts
2026-04-24 02:27 16.63306 -22.94824 1957 ft 116 kts
2026-04-24 02:27 16.64100 -22.94829 1818 ft 112 kts
2026-04-24 02:27 16.64881 -22.94834 1661 ft 112 kts
2026-04-24 02:27 16.65651 -22.94841 1520 ft 110 kts
2026-04-24 02:28 16.66418 -22.94846 1370 ft 111 kts
2026-04-24 02:28 16.67184 -22.94851 1223 ft 110 kts
2026-04-24 02:28 16.67963 -22.94854 1077 ft 113 kts
2026-04-24 02:28 16.68746 -22.94858 935 ft 114 kts
2026-04-24 02:29 16.69550 -22.94863 776 ft 117 kts
2026-04-24 02:29 16.70353 -22.94869 636 ft 114 kts
2026-04-24 02:29 16.71151 -22.94882 515 ft 115 kts
2026-04-24 02:29 16.71952 -22.94886 326 ft 115 kts
2026-04-24 02:30 16.72744 -22.94890 199 ft 109 kts
2026-04-24 02:30 16.73383 -22.94885 204 ft 71 kts 358°
2026-04-24 02:30 16.73777 -22.94895 188 ft 53 kts 360°
2026-04-24 02:30 16.74112 -22.94896 190 ft 38 kts 359°
2026-04-24 02:31 16.74260 -22.94810 186 ft 26 kts 57°
2026-04-24 02:31 16.74266 -22.94697 189 ft 8 kts 182°
2026-04-24 02:31 16.74197 -22.94699 200 ft 11 kts 180°
2026-04-24 02:31 16.74107 -22.94699 186 ft 15 kts 178°
2026-04-24 02:32 16.73993 -22.94696 188 ft 17 kts 178°
2026-04-24 02:32 16.73898 -22.94698 200 ft 11 kts 181°
2026-04-24 02:32 16.73811 -22.94697 200 ft 14 kts 179°
2026-04-24 02:32 16.73703 -22.94695 200 ft 17 kts 179°
2026-04-24 02:33 16.73616 -22.94635 200 ft 16 kts 107°
2026-04-24 02:33 16.73510 -22.94597 201 ft 19 kts 179°
2026-04-24 02:33 16.73391 -22.94595 201 ft 14 kts 179°
2026-04-24 02:33 16.73283 -22.94594 201 ft 17 kts 179°
2026-04-24 02:34 16.73234 -22.94530 204 ft 7 kts 89°
2026-04-24 02:34 16.73235 -22.94497 201 ft 2 kts 89°
2026-04-24 02:34 16.73235 -22.94495 201 ft 0 kts 89°